CFG339 EDDE-EDDF

Flight info

Callsign CFG339
Flight time 0h 31m
Altitude 22000
Route ERSIL1D ERSIL Y222 FUL/N0419F210 T152 KERAX KERAX5D
Aircraft A339/H-SADE1E2E3GHIJ3J5M1P2RWXY/LB2D1

Departure

Time 2026-05-09 13:44
Airport Erfurt-Weimar Airport (EDDE)

Arrival

Time 2026-05-09 14:16
Airport Frankfurt Main Airport (EDDF)
Time Latitude Longitude Altitude Speed Heading
2026-05-09 13:31 50.97585 10.96040 1046 ft 0 kts 189°
2026-05-09 13:37 50.97592 10.96036 1046 ft 4 kts 220°
2026-05-09 13:37 50.97595 10.96009 1046 ft 4 kts 271°
2026-05-09 13:38 50.97601 10.95983 1046 ft 0 kts 287°
2026-05-09 13:40 50.97605 10.95971 1046 ft 5 kts 295°
2026-05-09 13:40 50.97644 10.95948 1046 ft 7 kts 342°
2026-05-09 13:40 50.97700 10.95935 1046 ft 9 kts 360°
2026-05-09 13:40 50.97746 10.95995 1046 ft 9 kts 68°
2026-05-09 13:41 50.97745 10.96111 1045 ft 12 kts 95°
2026-05-09 13:41 50.97736 10.96205 1045 ft 14 kts 99°
2026-05-09 13:41 50.97721 10.96368 1044 ft 16 kts 97°
2026-05-09 13:41 50.97708 10.96554 1043 ft 18 kts 97°
2026-05-09 13:42 50.97692 10.96761 1042 ft 20 kts 97°
2026-05-09 13:42 50.97676 10.96990 1041 ft 22 kts 94°
2026-05-09 13:42 50.97695 10.97236 1040 ft 23 kts 81°
2026-05-09 13:42 50.97711 10.97393 1039 ft 6 kts 80°
2026-05-09 13:43 50.97711 10.97396 1039 ft 0 kts 80°
2026-05-09 13:43 50.97721 10.97428 1039 ft 10 kts 66°
2026-05-09 13:43 50.97773 10.97542 1037 ft 15 kts 51°
2026-05-09 13:43 50.97843 10.97531 1036 ft 10 kts 298°
2026-05-09 13:44 50.97856 10.97373 1038 ft 38 kts 276°
2026-05-09 13:44 50.97930 10.96446 1046 ft 131 kts 277°
2026-05-09 13:44 50.98068 10.94681 1435 ft 174 kts 279°
2026-05-09 13:44 50.98203 10.92718 2278 ft 190 kts 276°
2026-05-09 13:45 50.98284 10.90509 2982 ft 210 kts 274°
2026-05-09 13:45 50.98346 10.88084 3589 ft 230 kts 272°
2026-05-09 13:45 50.98391 10.85443 4178 ft 249 kts 270°
2026-05-09 13:45 50.98395 10.82600 4738 ft 264 kts 269°
2026-05-09 13:46 50.98393 10.79643 5591 ft 265 kts 269°
2026-05-09 13:46 50.98395 10.76696 6425 ft 268 kts 269°
2026-05-09 13:46 50.98409 10.73737 7282 ft 268 kts 269°
2026-05-09 13:46 50.98426 10.70755 8078 ft 272 kts 270°
2026-05-09 13:47 50.98445 10.67777 8858 ft 275 kts 270°
2026-05-09 13:47 50.98463 10.64719 9666 ft 279 kts 270°
2026-05-09 13:47 50.98482 10.61628 10448 ft 284 kts 270°
2026-05-09 13:47 50.98513 10.58376 10715 ft 306 kts 272°
2026-05-09 13:48 50.98787 10.54898 10939 ft 328 kts 281°
2026-05-09 13:48 50.99450 10.51389 11558 ft 334 kts 290°
2026-05-09 13:48 51.00329 10.47958 12206 ft 339 kts 291°
2026-05-09 13:48 51.01209 10.44446 12870 ft 343 kts 291°
2026-05-09 13:49 51.02084 10.40897 13534 ft 348 kts 290°
2026-05-09 13:49 51.02965 10.37300 14228 ft 351 kts 290°
2026-05-09 13:49 51.03748 10.33623 14837 ft 353 kts 281°
2026-05-09 13:49 51.03818 10.29738 15469 ft 355 kts 261°
2026-05-09 13:50 51.03060 10.26013 16073 ft 358 kts 243°
2026-05-09 13:50 51.01558 10.22847 16683 ft 361 kts 226°
2026-05-09 13:50 50.99741 10.20049 17266 ft 366 kts 224°
2026-05-09 13:50 50.97885 10.17237 17860 ft 369 kts 224°
2026-05-09 13:51 50.96029 10.14395 18458 ft 373 kts 225°
2026-05-09 13:51 50.94166 10.11506 18971 ft 376 kts 225°
2026-05-09 13:51 50.92289 10.08573 19489 ft 380 kts 225°
2026-05-09 13:51 50.90401 10.05613 20004 ft 384 kts 225°
2026-05-09 13:52 50.88514 10.02654 20503 ft 388 kts 225°
2026-05-09 13:52 50.86584 9.99632 21020 ft 392 kts 225°
2026-05-09 13:52 50.84635 9.96583 21548 ft 396 kts 225°
2026-05-09 13:52 50.82659 9.93496 21977 ft 401 kts 225°
2026-05-09 13:53 50.80670 9.90394 22104 ft 404 kts 225°
2026-05-09 13:53 50.78627 9.87210 22116 ft 415 kts 225°
2026-05-09 13:53 50.76580 9.84026 22116 ft 412 kts 225°
2026-05-09 13:53 50.74535 9.80851 22116 ft 412 kts 225°
2026-05-09 13:54 50.72489 9.77677 22113 ft 412 kts 225°
2026-05-09 13:54 50.70443 9.74509 22108 ft 412 kts 225°
2026-05-09 13:54 50.68395 9.71341 22108 ft 412 kts 225°
2026-05-09 13:54 50.66343 9.68168 22108 ft 412 kts 225°
2026-05-09 13:55 50.64293 9.65007 22106 ft 412 kts 225°
2026-05-09 13:55 50.62236 9.61862 22107 ft 412 kts 223°
2026-05-09 13:55 50.59987 9.59054 22104 ft 413 kts 220°
2026-05-09 13:55 50.57845 9.56045 22108 ft 413 kts 224°
2026-05-09 13:56 50.55763 9.52944 22105 ft 412 kts 224°
2026-05-09 13:56 50.53689 9.49833 22102 ft 412 kts 224°
2026-05-09 13:56 50.51603 9.46735 22102 ft 412 kts 224°
2026-05-09 13:56 50.49509 9.43659 22102 ft 412 kts 224°
2026-05-09 13:57 50.47403 9.40586 22098 ft 413 kts 223°
2026-05-09 13:57 50.45311 9.37547 22098 ft 413 kts 223°
2026-05-09 13:57 50.43193 9.34478 22098 ft 412 kts 223°
2026-05-09 13:57 50.41080 9.31419 22099 ft 413 kts 223°
2026-05-09 13:58 50.38968 9.28366 22099 ft 413 kts 223°
2026-05-09 13:58 50.36857 9.25317 22106 ft 412 kts 223°
2026-05-09 13:58 50.34764 9.22297 22101 ft 408 kts 223°
2026-05-09 13:58 50.32670 9.19279 22100 ft 410 kts 223°
2026-05-09 13:59 50.30573 9.16262 22097 ft 409 kts 223°
2026-05-09 13:59 50.28571 9.13110 22088 ft 408 kts 230°
2026-05-09 13:59 50.26935 9.09491 22097 ft 408 kts 240°
2026-05-09 13:59 50.25717 9.05485 22097 ft 408 kts 249°
2026-05-09 14:00 50.24772 9.01309 22095 ft 407 kts 250°
2026-05-09 14:00 50.24451 8.99900 22093 ft 406 kts 250°
2026-05-09 14:00 50.22866 8.93035 21403 ft 402 kts 250°
2026-05-09 14:00 50.21908 8.88944 20826 ft 398 kts 250°
2026-05-09 14:01 50.20960 8.84913 20095 ft 393 kts 250°
2026-05-09 14:01 50.20018 8.80921 19299 ft 390 kts 249°
2026-05-09 14:01 50.19084 8.76972 18550 ft 386 kts 249°
2026-05-09 14:01 50.18157 8.73068 17755 ft 381 kts 249°
2026-05-09 14:02 50.17239 8.69221 16968 ft 375 kts 249°
2026-05-09 14:02 50.16330 8.65436 16212 ft 370 kts 249°
2026-05-09 14:02 50.15432 8.61713 15448 ft 365 kts 249°
2026-05-09 14:02 50.14541 8.58046 14707 ft 360 kts 249°
2026-05-09 14:03 50.13655 8.54420 13977 ft 355 kts 250°
2026-05-09 14:03 50.12776 8.50849 13168 ft 350 kts 249°
2026-05-09 14:03 50.11906 8.47331 12376 ft 346 kts 249°
2026-05-09 14:03 50.11044 8.43853 11599 ft 342 kts 249°
2026-05-09 14:04 50.10191 8.40439 11248 ft 339 kts 249°
2026-05-09 14:04 50.09326 8.36999 11118 ft 340 kts 249°
2026-05-09 14:04 50.08471 8.33614 11091 ft 340 kts 249°
2026-05-09 14:04 50.07588 8.30145 11091 ft 340 kts 249°
2026-05-09 14:05 50.06724 8.26775 11091 ft 340 kts 249°
2026-05-09 14:05 50.05842 8.23352 11094 ft 340 kts 248°
2026-05-09 14:05 50.04958 8.19941 11087 ft 339 kts 248°
2026-05-09 14:05 50.04076 8.16558 10774 ft 336 kts 248°
2026-05-09 14:06 50.03201 8.13227 10423 ft 324 kts 248°
2026-05-09 14:06 50.02377 8.10109 10193 ft 297 kts 248°
2026-05-09 14:06 50.01617 8.07262 9795 ft 276 kts 248°
2026-05-09 14:06 50.00876 8.04511 8924 ft 272 kts 248°
2026-05-09 14:07 50.00143 8.01808 8193 ft 273 kts 247°
2026-05-09 14:07 49.99400 7.99091 7529 ft 272 kts 247°
2026-05-09 14:07 49.98653 7.96407 6894 ft 270 kts 244°
2026-05-09 14:07 49.97518 7.94141 6236 ft 267 kts 219°
2026-05-09 14:08 49.95867 7.92867 5527 ft 266 kts 193°
2026-05-09 14:08 49.94043 7.92850 4841 ft 265 kts 167°
2026-05-09 14:08 49.92410 7.94108 4264 ft 259 kts 138°
2026-05-09 14:08 49.91422 7.96298 4058 ft 241 kts 109°
2026-05-09 14:09 49.91009 7.98799 4016 ft 243 kts 103°
2026-05-09 14:09 49.90766 8.01406 4007 ft 242 kts 89°
2026-05-09 14:09 49.91020 8.03952 4007 ft 242 kts 75°
2026-05-09 14:09 49.91551 8.06462 4006 ft 241 kts 69°
2026-05-09 14:10 49.92731 8.11360 3999 ft 242 kts 69°
2026-05-09 14:10 49.93308 8.13783 4000 ft 242 kts 69°
2026-05-09 14:10 49.93901 8.16262 4002 ft 243 kts 69°
2026-05-09 14:11 49.94479 8.18688 4003 ft 243 kts 69°
2026-05-09 14:11 49.95066 8.21143 4001 ft 243 kts 70°
2026-05-09 14:11 49.95650 8.23593 3994 ft 236 kts 70°
2026-05-09 14:11 49.96194 8.25873 3965 ft 215 kts 70°
2026-05-09 14:12 49.96702 8.28005 3740 ft 207 kts 69°
2026-05-09 14:12 49.97194 8.30067 3469 ft 199 kts 69°
2026-05-09 14:12 49.97665 8.32036 3211 ft 190 kts 69°
2026-05-09 14:12 49.98114 8.33918 2956 ft 180 kts 69°
2026-05-09 14:13 49.98535 8.35689 2744 ft 175 kts 69°
2026-05-09 14:14 50.01269 8.47161 1204 ft 140 kts 68°
2026-05-09 14:15 50.01601 8.48544 1021 ft 139 kts 68°
2026-05-09 14:15 50.01920 8.49975 803 ft 136 kts 69°
2026-05-09 14:15 50.02262 8.51328 595 ft 138 kts 64°
2026-05-09 14:15 50.02481 8.52279 489 ft 136 kts 68°
2026-05-09 14:16 50.02814 8.53664 372 ft 139 kts 66°
2026-05-09 14:16 50.03130 8.54982 356 ft 101 kts 69°
2026-05-09 14:16 50.03271 8.55566 352 ft 24 kts 65°
2026-05-09 14:16 50.03401 8.55817 357 ft 31 kts 37°
2026-05-09 14:17 50.03498 8.55942 362 ft 0 kts 50°
2026-05-09 14:17 50.03516 8.55966 361 ft 10 kts 43°
2026-05-09 14:17 50.03571 8.56038 360 ft 10 kts 37°
2026-05-09 14:17 50.03630 8.56113 364 ft 13 kts 44°
2026-05-09 14:18 50.03681 8.56252 364 ft 18 kts 67°
2026-05-09 14:18 50.03726 8.56445 363 ft 20 kts 70°
2026-05-09 14:18 50.03774 8.56652 361 ft 21 kts 70°
2026-05-09 14:18 50.03825 8.56866 363 ft 21 kts 70°
2026-05-09 14:19 50.03876 8.57079 364 ft 21 kts 70°
2026-05-09 14:19 50.03926 8.57288 371 ft 20 kts 69°
2026-05-09 14:19 50.03973 8.57484 374 ft 19 kts 69°
2026-05-09 14:19 50.04019 8.57677 375 ft 20 kts 69°
2026-05-09 14:20 50.04036 8.57746 376 ft 1 kts 69°
2026-05-09 14:20 50.04041 8.57767 375 ft 3 kts 69°
2026-05-09 14:20 50.04069 8.57882 377 ft 19 kts 70°
2026-05-09 14:21 50.04169 8.58298 379 ft 21 kts 69°
2026-05-09 14:21 50.04221 8.58514 379 ft 22 kts 68°
2026-05-09 14:21 50.04305 8.58620 375 ft 16 kts
2026-05-09 14:21 50.04369 8.58631 376 ft 0 kts
2026-05-09 14:22 50.04383 8.58633 376 ft 0 kts
2026-05-09 14:24 50.04401 8.58636 376 ft 11 kts
2026-05-09 14:25 50.04495 8.58639 377 ft 15 kts 350°
2026-05-09 14:25 50.04597 8.58583 375 ft 17 kts 340°
2026-05-09 14:25 50.04651 8.58463 378 ft 12 kts 256°
2026-05-09 14:25 50.04617 8.58329 376 ft 15 kts 248°
2026-05-09 14:26 50.04576 8.58158 373 ft 20 kts 250°
2026-05-09 14:26 50.04597 8.58020 368 ft 8 kts 330°
2026-05-09 14:26 50.04665 8.57982 369 ft 13 kts 340°
2026-05-09 14:26 50.04755 8.57932 365 ft 15 kts 340°
2026-05-09 14:27 50.04841 8.57860 367 ft 13 kts 328°
2026-05-09 14:27 50.04884 8.57855 369 ft 3 kts 11°
2026-05-09 14:27 50.04901 8.57865 369 ft 3 kts 19°
2026-05-09 14:27 50.04912 8.57872 369 ft 1 kts 21°
2026-05-09 14:28 50.04914 8.57874 369 ft 0 kts 21°